Location: Cheching
(60.0667°N, 164.2167°W)
Time: 00:44:33
(UTC+00:00)

XW-2C - Visible Passes

Search period start: 24 January 2021 00:00
Search period end: 03 February 2021 00:00
Orbit: 507 x 526 km, 97.5° (Epoch: 23 January)

Date Brightness Start Highest point End Pass type
(mag) Time Alt. Az. Time Alt. Az. Time Alt. Az.
24 Jan ? 04:34:13 10° SSW 04:37:36 31° W 04:41:01 10° NNW visible
24 Jan ? 15:56:16 10° NE 15:58:51 17° E 16:01:26 10° SE visible
24 Jan ? 17:29:36 10° NNE 17:33:27 82° WNW 17:37:18 10° SSW visible
25 Jan ? 04:19:22 10° S 04:22:56 40° W 04:26:34 10° NNW visible
25 Jan ? 15:42:13 10° NE 15:44:07 13° E 15:46:00 10° ESE visible
25 Jan ? 17:15:02 10° NNE 17:18:53 76° ESE 17:22:43 10° SSW visible
26 Jan ? 04:04:36 10° S 04:08:19 54° W 04:12:05 10° NNW visible
26 Jan ? 17:00:29 10° NNE 17:04:17 56° ESE 17:08:04 10° S visible
27 Jan ? 03:49:56 10° S 03:53:42 74° WSW 03:57:32 10° NNW visible
27 Jan ? 05:26:48 10° WSW 05:28:31 13° W 05:30:14 10° WNW visible
27 Jan ? 16:45:59 10° NNE 16:49:40 42° E 16:53:19 10° S visible
27 Jan ? 18:20:14 10° N 18:23:41 32° WNW 18:27:08 10° SW visible
28 Jan ? 05:11:18 10° SW 05:13:45 16° W 05:16:14 10° NW visible
28 Jan ? 16:31:31 10° NNE 16:35:01 32° E 16:38:29 10° SSE visible
28 Jan ? 18:05:34 10° N 18:09:12 41° WNW 18:12:49 10° SW visible
29 Jan ? 04:56:06 10° SW 04:59:02 21° W 05:02:00 10° NW visible
29 Jan ? 16:17:06 10° NE 16:20:20 25° E 16:23:32 10° SSE visible
29 Jan ? 17:50:55 10° N 17:54:41 54° WNW 17:58:26 10° SW visible
30 Jan ? 04:41:03 10° SSW 04:44:20 27° W 04:47:38 10° NNW visible
30 Jan ? 16:02:47 10° NE 16:05:37 19° E 16:08:26 10° SE visible
30 Jan ? 17:36:17 10° NNE 17:40:08 72° WNW 17:43:58 10° SSW visible
31 Jan ? 04:26:08 10° SSW 04:29:39 36° W 04:33:13 10° NNW visible
31 Jan ? 15:48:37 10° NE 15:50:53 15° E 15:53:08 10° ESE visible
31 Jan ? 17:21:42 10° NNE 17:25:34 86° ESE 17:29:25 10° SSW visible
01 Feb ? 04:11:20 10° S 04:15:00 48° W 04:18:44 10° NNW visible
01 Feb ? 15:34:47 10° ENE 15:36:06 11° E 15:37:25 10° ESE visible
01 Feb ? 17:07:07 10° NNE 17:10:58 65° ESE 17:14:47 10° S visible
02 Feb ? 03:56:37 10° S 04:00:22 64° WSW 04:04:12 10° NNW visible
02 Feb ? 05:34:03 10° W 05:35:15 11° W 05:36:28 10° WNW visible
02 Feb ? 16:52:36 10° NNE 16:56:21 48° E 17:00:04 10° S visible
